Weather History for KDVN - June, 2013

Change the Weather History Date:

Monday, June 24, 2013

  Actual Average Record
Temperature  
Mean Temperature 73 °F 72 °F  
Max Temperature 80 °F 83 °F 93 °F (1983)
Min Temperature 65 °F 62 °F 50 °F (1972)
Degree Days  
Heating Degree Days 0 0  
Month to date heating degree days 24 22  
Since 1 June heating degree days 24 22  
Since 1 July heating degree days 6567 6509  
Cooling Degree Days 8 8  
Month to date cooling degree days 141 134  
Year to date cooling degree days 236 195  
Since 1 June cooling degree days 141 134  
Growing Degree Days 20 (Base 50)    
Moisture  
Dew Point 65 °F    
Average Humidity 90    
Maximum Humidity 100    
Minimum Humidity 79    
Precipitation  
Precipitation 2.74 in 0.11 in 2.74 in (2013)
Month to date precipitation 3.30 3.44  
Year to date precipitation 24.27 16.25  
Snow  
Snow 0.00 in - - ()
Month to date snowfall 0.0  
Since 1 June snowfall 0.0  
Since 1 July snowfall 27.1  
Snow Depth 0.00 in    
Sea Level Pressure  
Sea Level Pressure 30.00 in    
Wind  
Wind Speed 9 mph (South)    
Max Wind Speed 56 mph    
Max Gust Speed 70 mph    
Visibility 6 miles    
Events Fog , Rain , Thunderstorm    
T = Trace of Precipitation, MM = Missing Value Source: NWS Daily Summary

Daily Weather History Graph

Daily Weather History Graph

Search for Another Location

Airport or City:

Trip Planner

Search our weather history database for the weather conditions in past years. The results will help you decide how hot, cold, wet, or windy it might be!

Date:

Astronomy

Jun. 24, 2013 Rise Set
Actual Time 5:29 AM CDT 8:40 PM CDT
Civil Twilight 4:54 AM CDT 9:14 PM CDT
Nautical Twilight 4:11 AM CDT 9:58 PM CDT
Astronomical Twilight 3:18 AM CDT 10:51 PM CDT
Moon 9:41 PM CDT (6/24) 6:58 AM CDT (6/24)
Length of Visible Light 16h 19m
Length of Day
15h 11m
Full, 98% of the Moon is Illuminated
Jun 24
Full
Jun 29
Last Quarter
Jul 8
New
Jul 15
First Quarter
Jul 22
Full

Hourly Weather History & Observations

Time (CDT) Temp. Dew Point Humidity Pressure Visibility Wind Dir Wind Speed Gust Speed Precip Events Conditions
12:52 AM 72.0 °F 64.0 °F 76% 29.96 in 10.0 mi South 8.1 mph - N/A   Clear
1:29 AM 71.6 °F 64.4 °F 78% 30.00 in 10.0 mi SW 9.2 mph - N/A Thunderstorm Mostly Cloudy
1:43 AM 71.6 °F 64.4 °F 78% 30.00 in 2.5 mi SSW 15.0 mph 21.9 mph N/A Thunderstorm Unknown
1:52 AM 70.0 °F 66.0 °F 87% 29.97 in 6.0 mi SSW 9.2 mph 23.0 mph 0.01 in Rain , Thunderstorm Light Thunderstorms and Rain
2:06 AM 69.8 °F 66.2 °F 88% 29.98 in 1.8 mi Calm Calm - 0.13 in Rain , Thunderstorm Heavy Thunderstorms and Rain
2:16 AM 69.8 °F 66.2 °F 88% 29.98 in 3.0 mi ESE 6.9 mph - 0.17 in Rain , Thunderstorm Light Thunderstorms and Rain
2:52 AM 69.1 °F 66.9 °F 93% 29.96 in 8.0 mi ESE 9.2 mph - 0.23 in Rain , Thunderstorm Light Rain
3:10 AM 69.8 °F 66.2 °F 88% 29.99 in 10.0 mi Calm Calm - 0.00 in Rain Light Rain
3:29 AM 69.8 °F 66.2 °F 88% 29.99 in 10.0 mi NW 6.9 mph - 0.01 in Rain , Thunderstorm Light Rain
3:52 AM 69.1 °F 66.9 °F 93% 30.01 in 9.0 mi North 6.9 mph - 0.01 in Thunderstorm Thunderstorm
4:04 AM 69.8 °F 68.0 °F 94% 30.01 in 8.0 mi Calm Calm - N/A Thunderstorm Thunderstorm
4:52 AM 70.0 °F 66.9 °F 90% 29.98 in 8.0 mi SSE 11.5 mph - 0.11 in Rain , Thunderstorm Light Rain
5:21 AM 69.8 °F 68.0 °F 94% 30.00 in 8.0 mi NE 5.8 mph - 0.04 in Rain , Thunderstorm Light Rain
5:29 AM 69.8 °F 66.2 °F 88% 30.02 in 5.0 mi North 12.7 mph 18.4 mph 0.09 in Rain , Thunderstorm Light Rain
5:50 AM 66.2 °F 62.6 °F 88% 30.05 in 2.5 mi NNW 9.2 mph - 0.27 in Rain , Thunderstorm Light Thunderstorms and Rain
5:52 AM 64.9 °F 63.0 °F 93% 30.03 in 1.8 mi Variable 5.8 mph - 0.30 in Rain , Thunderstorm Heavy Thunderstorms and Rain
6:10 AM 66.2 °F 62.6 °F 88% 30.04 in 2.5 mi SE 13.8 mph - 0.12 in Rain , Thunderstorm Light Thunderstorms and Rain
6:17 AM 64.4 °F 62.6 °F 94% 30.02 in 4.0 mi SSE 13.8 mph - 0.18 in Rain , Thunderstorm Heavy Thunderstorms and Rain
6:34 AM 64.4 °F 64.4 °F 100% 30.04 in 2.5 mi SSE 9.2 mph - 0.36 in Rain , Thunderstorm Heavy Thunderstorms and Rain
6:50 AM 64.4 °F 64.4 °F 100% 30.05 in 8.0 mi SSE 9.2 mph - 0.41 in Rain , Thunderstorm Light Thunderstorms and Rain
6:52 AM 64.9 °F 64.0 °F 97% 30.04 in 8.0 mi SSE 8.1 mph - 0.41 in Rain , Thunderstorm Light Thunderstorms and Rain
7:38 AM 66.2 °F 64.4 °F 94% 30.10 in 2.0 mi ENE 4.6 mph - 0.33 in Rain , Thunderstorm Heavy Thunderstorms and Rain
7:52 AM 66.0 °F 64.0 °F 93% 30.10 in 1.2 mi Variable 6.9 mph - 0.46 in Rain , Thunderstorm Heavy Thunderstorms and Rain
8:08 AM 66.2 °F 64.4 °F 94% 30.12 in 0.5 mi SSW 5.8 mph - 0.25 in Fog , Rain , Thunderstorm Heavy Thunderstorms and Rain
8:16 AM 66.2 °F 64.4 °F 94% 30.12 in 2.0 mi South 8.1 mph - 0.27 in Rain , Thunderstorm Rain
8:24 AM 66.2 °F 64.4 °F 94% 30.11 in 3.0 mi SSE 9.2 mph - 0.30 in Rain , Thunderstorm Thunderstorms and Rain
8:52 AM 66.0 °F 64.0 °F 93% 30.05 in 4.0 mi SSE 16.1 mph - 0.34 in Rain , Thunderstorm Thunderstorms and Rain
9:34 AM 66.2 °F 64.4 °F 94% 30.04 in 10.0 mi South 6.9 mph - 0.02 in Thunderstorm Thunderstorm
9:52 AM 66.0 °F 64.0 °F 93% 30.04 in 5.0 mi SSE 6.9 mph - 0.03 in Rain , Thunderstorm Light Thunderstorms and Rain
10:10 AM 66.2 °F 64.4 °F 94% 30.05 in 10.0 mi South 8.1 mph - 0.00 in   Partly Cloudy
10:52 AM 70.0 °F 64.9 °F 84% 30.01 in 9.0 mi SSE 11.5 mph - 0.00 in Rain Light Rain
11:52 AM 73.9 °F 66.9 °F 79% 29.97 in 10.0 mi South 11.5 mph - 0.00 in   Scattered Clouds
12:35 PM 75.2 °F 66.2 °F 73% 29.98 in 10.0 mi SSW 13.8 mph - N/A Thunderstorm Thunderstorm
12:52 PM 73.9 °F 66.9 °F 79% 30.01 in 9.0 mi WSW 24.2 mph 29.9 mph 0.01 in Rain , Thunderstorm Light Rain
1:08 PM 69.8 °F 64.4 °F 83% 30.02 in 2.5 mi SW 6.9 mph - 0.04 in Rain , Thunderstorm Light Rain
1:15 PM 69.8 °F 64.4 °F 83% 30.00 in 10.0 mi Variable 3.5 mph - 0.04 in Rain , Thunderstorm Light Thunderstorms and Rain
1:31 PM 71.6 °F 66.2 °F 83% 30.01 in 1.8 mi West 5.8 mph - 0.09 in Rain , Thunderstorm Heavy Thunderstorms and Rain
1:38 PM 71.6 °F 64.4 °F 78% 30.01 in 3.0 mi NW 8.1 mph - 0.10 in Rain , Thunderstorm Light Thunderstorms and Rain
1:48 PM 69.8 °F 66.2 °F 88% 29.99 in 1.8 mi SSW 8.1 mph - 0.17 in Rain , Thunderstorm Heavy Thunderstorms and Rain
1:52 PM 70.0 °F 66.0 °F 87% 29.96 in 1.2 mi Variable 4.6 mph - 0.18 in Rain , Thunderstorm Heavy Thunderstorms and Rain
1:57 PM 71.6 °F 66.2 °F 83% 29.98 in 3.0 mi WNW 3.5 mph - 0.00 in Rain , Thunderstorm Light Thunderstorms and Rain
2:06 PM 73.4 °F 66.2 °F 78% 29.97 in 10.0 mi North 3.5 mph - 0.00 in   Mostly Cloudy
2:17 PM 73.4 °F 66.2 °F 78% 29.99 in 4.0 mi SSE 6.9 mph - 0.02 in Thunderstorm Unknown
2:20 PM 71.6 °F 66.2 °F 83% 29.99 in 1.2 mi South 12.7 mph - 0.10 in Rain , Thunderstorm Heavy Thunderstorms and Rain
2:39 PM 71.6 °F 68.0 °F 88% 29.97 in 3.0 mi SE 4.6 mph - 0.20 in Rain , Thunderstorm Light Thunderstorms and Rain
2:52 PM 72.0 °F 68.0 °F 87% 29.95 in 8.0 mi Calm Calm - 0.21 in Rain , Thunderstorm Light Rain
3:14 PM 73.4 °F 69.8 °F 88% 29.96 in 10.0 mi Calm Calm - 0.00 in   Partly Cloudy
3:37 PM 73.4 °F 69.8 °F 88% 30.03 in 2.5 mi South 28.8 mph 58.7 mph 0.03 in Thunderstorm Clear
3:39 PM 71.6 °F 66.2 °F 83% 30.00 in 0.8 mi SSW 41.4 mph 65.6 mph 0.12 in Thunderstorm Unknown
3:42 PM 69.8 °F 64.4 °F 83% 30.03 in 0.2 mi North - - 0.17 in Fog , Rain , Thunderstorm Heavy Thunderstorms and Rain
3:49 PM 66.2 °F 64.4 °F 94% 30.00 in 0.5 mi West 20.7 mph 70.2 mph 0.32 in Fog , Thunderstorm Unknown
3:50 PM 66.0 °F 64.0 °F 93% 29.99 in 0.8 mi West 19.6 mph 70.2 mph 0.33 in Rain , Thunderstorm Heavy Thunderstorms and Rain
3:55 PM 66.2 °F 64.4 °F 94% 30.00 in 2.0 mi West 16.1 mph 32.2 mph 0.02 in Rain , Thunderstorm Heavy Thunderstorms and Rain
3:58 PM 66.2 °F 64.4 °F 94% 30.01 in 3.0 mi West 17.3 mph - 0.02 in Rain , Thunderstorm Thunderstorms and Rain
4:12 PM 66.2 °F 64.4 °F 94% 30.03 in 2.0 mi West 12.7 mph - 0.04 in Rain , Thunderstorm Thunderstorms and Rain
4:22 PM 66.2 °F 64.4 °F 94% 30.00 in 6.0 mi West 8.1 mph - 0.06 in Rain , Thunderstorm Light Thunderstorms and Rain
4:41 PM 66.2 °F 64.4 °F 94% 29.98 in 6.0 mi WSW 3.5 mph - 0.08 in Rain Light Rain
4:49 PM 66.2 °F 64.4 °F 94% 29.98 in 6.0 mi South 5.8 mph - 0.09 in Rain , Thunderstorm Light Rain
4:52 PM 66.0 °F 64.0 °F 93% 29.96 in 6.0 mi South 4.6 mph - 0.09 in Rain , Thunderstorm Light Rain
5:19 PM 66.2 °F 64.4 °F 94% 29.93 in 10.0 mi ESE 9.2 mph - 0.02 in   Scattered Clouds
5:52 PM 66.9 °F 64.9 °F 93% 29.91 in 10.0 mi SSE 9.2 mph - 0.02 in   Partly Cloudy
6:52 PM 68.0 °F 66.0 °F 93% 29.91 in 10.0 mi South 10.4 mph - N/A   Clear
7:52 PM 68.0 °F 64.9 °F 90% 29.90 in 10.0 mi SSE 5.8 mph - N/A   Clear
8:52 PM 68.0 °F 64.9 °F 90% 29.89 in 10.0 mi Calm Calm - N/A   Mostly Cloudy
9:52 PM 66.9 °F 64.9 °F 93% 29.92 in 10.0 mi ESE 4.6 mph - N/A   Scattered Clouds
10:52 PM 66.9 °F 64.9 °F 93% 29.92 in 10.0 mi ESE 4.6 mph - N/A   Mostly Cloudy
11:52 PM 66.9 °F 64.9 °F 93% 29.90 in 10.0 mi ESE 6.9 mph - N/A   Partly Cloudy